User: anonymous   Login
Location: Bruch
(44.2051°N, 0.4120°E)
Time: 22:16:46
(UTC+00:00)
Language:

NOAA 6 - Orbit

View from above orbital plane
View from above orbital plane
View from above satellite
View from above satellite

Ground track
Ground track

The orbit data is extracted from the following two-line orbital elements,

1 11416U 79057A   21059.38326447  .00000026  00000-0  25550-4 0  9994
2 11416  98.6662  64.4625 0009714 212.0758 147.9836 14.33620013173591
Epoch (UTC): 28 February 2021 09:11:54
Eccentricity: 0.0009714
inclination: 98.6662°
perigee height: 773 km
apogee height: 786 km
right ascension of ascending node: 64.4625°
argument of perigee: 212.0758°
revolutions per day: 14.33620013
mean anomaly at epoch: 147.9836°
orbit number at epoch: 17359

The dashed part of the orbit path shows where the satellite is in the earth's shadow,  

DLR